Location: Saratoga Springs
(43.0831°N, 73.7850°W)
Time: 19:32:08
(UTC-04:00)

Altair - All Passes

Search period start: 16 April 2024 00:00
Search period end: 26 April 2024 00:00
Orbit: 1502 x 1682 km, 47.2° (Epoch: 16 April)

Date Brightness Start Highest point End Pass type
(mag) Time Alt. Az. Time Alt. Az. Time Alt. Az.
16 Apr - 01:39:39 10° WNW 01:49:22 87° NNE 01:58:42 10° ESE visible
16 Apr - 03:44:51 10° WNW 03:53:30 42° SW 04:01:55 10° SSE visible
16 Apr - 19:01:00 10° S 19:09:32 33° SE 19:17:52 10° ENE daylight
16 Apr - 21:03:27 10° WSW 21:13:29 81° SSE 21:23:11 10° ENE visible
16 Apr - 23:08:49 10° W 23:18:42 70° N 23:28:12 10° E visible
17 Apr - 01:14:22 10° WNW 01:24:08 84° NNE 01:33:30 10° ESE visible
17 Apr - 03:19:33 10° WNW 03:28:23 45° SW 03:36:58 10° SSE visible
17 Apr - 05:29:20 10° WSW 05:31:06 11° WSW 05:32:51 10° SW visible
17 Apr - 18:36:08 10° S 18:44:25 30° SE 18:52:31 10° ENE daylight
17 Apr - 20:38:14 10° SW 20:48:16 77° SSE 20:57:58 10° ENE visible
17 Apr - 22:43:30 10° W 22:53:25 71° N 23:02:58 10° ENE visible
18 Apr - 00:49:06 10° WNW 00:58:54 82° NNE 01:08:17 10° ESE visible
18 Apr - 02:54:15 10° WNW 03:03:16 49° SW 03:12:00 10° SSE visible
18 Apr - 05:02:39 10° W 05:06:05 12° WSW 05:09:29 10° SW visible
18 Apr - 18:11:19 10° S 18:19:18 28° SE 18:27:08 10° ENE daylight
18 Apr - 20:13:01 10° SW 20:23:03 73° SSE 20:32:45 10° ENE visible
18 Apr - 22:18:10 10° W 22:28:09 72° N 22:37:43 10° ENE visible
19 Apr - 00:23:49 10° WNW 00:33:39 80° NNE 00:43:04 10° ESE visible
19 Apr - 02:28:58 10° WNW 02:38:08 53° SW 02:47:00 10° SE visible
19 Apr - 04:36:35 10° W 04:41:03 14° WSW 04:45:29 10° SSW visible
19 Apr - 17:46:33 10° S 17:54:12 25° SE 18:01:43 10° E daylight
19 Apr - 19:47:50 10° SW 19:57:50 70° SSE 20:07:32 10° ENE daylight
19 Apr - 21:52:51 10° W 22:02:51 73° N 22:12:29 10° ENE visible
19 Apr - 23:58:32 10° WNW 00:08:24 77° NNE 00:17:51 10° ESE visible
20 Apr - 02:03:42 10° WNW 02:13:00 57° SW 02:21:58 10° SE visible
20 Apr - 04:10:47 10° W 04:16:02 16° SW 04:21:14 10° SSW visible
20 Apr - 17:21:51 10° S 17:29:06 23° SE 17:36:15 10° E daylight
20 Apr - 19:22:40 10° SW 19:32:37 66° SE 19:42:19 10° ENE daylight
20 Apr - 21:27:31 10° W 21:37:34 74° NNW 21:47:15 10° ENE visible
20 Apr - 23:33:14 10° WNW 23:43:08 76° NNE 23:52:37 10° E visible
21 Apr - 01:38:25 10° WNW 01:47:51 61° SW 01:56:55 10° SE visible
21 Apr - 03:45:05 10° W 03:50:59 19° SW 03:56:49 10° SSW visible
21 Apr - 16:57:13 10° S 17:04:01 21° SE 17:10:44 10° E daylight
21 Apr - 18:57:31 10° SW 19:07:25 62° SE 19:17:05 10° ENE daylight
21 Apr - 21:02:12 10° W 21:12:18 76° NNW 21:22:01 10° ENE visible
21 Apr - 23:07:56 10° WNW 23:17:52 74° N 23:27:22 10° E visible
22 Apr - 01:13:09 10° WNW 01:22:42 64° SW 01:31:51 10° SE visible
22 Apr - 03:19:30 10° W 03:25:57 21° SW 03:32:17 10° S visible
22 Apr - 16:32:40 10° SSE 16:38:56 19° SE 16:45:07 10° E daylight
22 Apr - 18:32:24 10° SW 18:42:14 58° SE 18:51:51 10° ENE daylight
22 Apr - 20:36:53 10° WSW 20:47:01 78° NNW 20:56:47 10° ENE visible
22 Apr - 22:42:38 10° WNW 22:52:35 73° N 23:02:08 10° E visible
23 Apr - 00:47:52 10° WNW 00:57:31 68° SSW 01:06:46 10° SE visible
23 Apr - 02:53:58 10° W 03:00:54 23° SW 03:07:41 10° S visible
23 Apr - 16:08:13 10° SSE 16:13:51 16° SE 16:19:26 10° E daylight
23 Apr - 18:07:18 10° SW 18:17:03 55° SE 18:26:36 10° ENE daylight
23 Apr - 20:11:36 10° WSW 20:21:44 80° NNW 20:31:33 10° ENE visible
23 Apr - 22:17:19 10° WNW 22:27:19 72° N 22:36:53 10° E visible
24 Apr - 00:22:36 10° WNW 00:32:20 72° SSW 00:41:39 10° SE visible
24 Apr - 02:28:30 10° WNW 02:35:51 26° SW 02:43:00 10° S visible
24 Apr - 15:43:57 10° SSE 15:48:47 15° ESE 15:53:36 10° E daylight
24 Apr - 17:42:13 10° SSW 17:51:52 51° SE 18:01:21 10° ENE daylight
24 Apr - 19:46:18 10° WSW 19:56:28 82° NNW 20:06:19 10° ENE daylight
24 Apr - 21:52:00 10° WNW 22:02:01 71° N 22:11:38 10° E visible
24 Apr - 23:57:20 10° WNW 00:07:09 76° SSW 00:16:32 10° SE visible
25 Apr - 02:03:03 10° WNW 02:10:46 28° SW 02:18:17 10° S visible
25 Apr - 15:19:56 10° SE 15:23:44 13° ESE 15:27:31 10° E daylight
25 Apr - 17:17:10 10° SSW 17:26:42 48° SE 17:36:05 10° ENE daylight
25 Apr - 19:21:00 10° WSW 19:31:11 85° NNW 19:41:06 10° ENE daylight
25 Apr - 21:26:42 10° W 21:36:44 70° N 21:46:22 10° E visible
25 Apr - 23:32:04 10° WNW 23:41:56 80° SSW 23:51:23 10° ESE visible
